User: anonymous   Login
Location: Slanting_Bridge
(35.6330°N, 80.9830°W)
Time: 06:24:50
(UTC-04:00)
Language:

Hamsat - Orbit

View from above orbital plane
View from above orbital plane
View from above satellite
View from above satellite

Ground track
Ground track

The orbit data is extracted from the following two-line orbital elements,

1 28650U 05017B   15247.05775249  .00000716  00000-0  84096-4 0  9997
2 28650  97.5808 235.9831 0025348 127.9753 232.3759 14.87604549559173
Epoch (UTC): 04 September 2015 01:23:09
Eccentricity: 0.0025348
inclination: 97.5808°
perigee height: 588 km
apogee height: 623 km
right ascension of ascending node: 235.9831°
argument of perigee: 127.9753°
revolutions per day: 14.87604549
mean anomaly at epoch: 232.3759°
orbit number at epoch: 55917

The dashed part of the orbit path shows where the satellite is in the earth's shadow,  

DLR